カタログに戻る

STARLINK-35484

運用中通信VLEO
NORAD 65923·PAYLOAD·🇺🇸 United States

打ち上げ Oct 8, 2025 から Vandenberg Space Force Base

Loading…

次のパス (今後24時間)

TLE

最新Source: CelesTrak SupGP

元期: Sep 15, 2026, 03:10 UTC

1 65923C 25225P   26258.13243056  .00068220  00000+0  20148-2 0  2580
2 65923  53.1601   2.4892 0001063  77.4765  95.1455 15.34369303    11

AllMySatでSTARLINK-35484をリアルタイム追跡

Download on the App Store